RH
23 25 28 31 35 38 41 43 44 45 46 46 48 50 54 58 58 58 60 76 92 91 97 109 104 100 100 100 101 99 101 102 87 68 58 66 82 87 83 87 98 102 102 103 95 84 75 62 55 53 55 59 61 57 51 48 44 41 40 40 42 45 47 48 47 46 49 52 52 52 53 57 63 68 69 76 86 89 82 66 48 41 36 33 33
18 19 20 21 23 25 27 30 31 33 35 36 38 39 42 45 44 46 58 75 79 79 95 108 102 100 101 99 99 99 100 105 101 85 69 67 71 72 75 83 94 101 103 103 93 84 82 76 71 70 68 68 68 66 59 53 50 46 43 41 42 46 47 48 49 51 53 52 52 54 57 63 68 71 74 82 91 87 73 58 46 41 37 34 33
18 18 18 18 18 18 19 20 22 23 24 26 28 29 31 34 33 34 48 61 66 83 103 102 95 96 98 97 95 93 94 97 101 101 96 90 78 69 71 76 83 90 98 100 88 78 78 78 77 75 73 71 70 68 61 54 52 49 46 45 45 46 48 49 52 54 52 51 54 57 61 64 65 65 71 83 89 79 64 53 46 41 37 35 34
20 19 18 18 17 17 17 16 17 17 18 19 19 22 23 25 27 26 32 38 48 81 105 98 91 93 93 94 89 83 81 82 87 95 98 94 83 77 79 77 76 82 87 90 85 75 72 76 77 74 72 73 71 67 61 56 53 50 48 48 48 49 50 51 53 52 51 55 60 63 65 63 61 60 62 75 83 72 59 51 44 40 37 35 34
21 20 20 20 18 17 17 15 16 15 16 17 16 17 18 19 21 20 22 25 32 60 84 80 74 81 90 93 91 86 84 84 86 88 90 89 82 77 77 73 73 79 84 86 84 74 66 67 68 66 66 68 69 68 63 58 53 50 51 52 52 53 53 55 56 56 57 62 65 68 70 65 62 61 58 66 73 66 54 48 43 39 36 34 33
22 23 22 22 20 19 18 16 16 16 16 16 16 16 15 16 17 17 19 20 24 38 55 59 59 74 93 97 97 97 97 98 97 95 94 94 89 77 70 69 68 73 84 89 85 75 68 63 58 56 58 61 68 71 66 60 56 55 56 57 57 58 61 63 63 63 66 69 72 74 73 68 65 61 59 60 58 54 51 47 43 38 35 33 31
22 24 24 24 24 21 20 18 17 17 17 16 16 16 15 15 14 15 16 17 20 24 35 47 58 78 97 101 101 102 102 101 100 99 98 96 92 81 71 67 65 68 79 88 86 80 74 66 58 57 61 69 77 78 71 66 63 62 62 62 62 64 68 70 70 73 77 79 80 79 75 69 63 58 58 54 44 42 45 45 43 38 35 33 33
22 24 25 26 25 23 22 21 19 18 18 18 17 17 16 16 15 15 15 17 18 18 26 41 63 89 101 100 100 101 100 99 96 96 96 97 93 85 75 65 62 63 66 75 84 86 82 74 70 70 74 81 86 85 80 76 73 71 70 67 67 69 71 73 76 81 84 84 83 79 72 62 56 55 52 44 36 36 39 42 43 38 35 36 37
24 25 27 26 26 25 23 22 20 20 19 19 19 18 18 17 17 16 16 17 17 20 26 36 65 99 104 98 100 102 100 96 91 87 84 85 82 75 71 63 59 58 58 68 83 93 92 84 81 81 82 85 89 92 91 88 84 80 77 74 72 72 74 75 79 83 85 85 80 70 61 53 50 49 41 33 33 36 38 42 43 38 35 37 39
26 28 28 27 25 25 24 23 22 21 20 21 20 19 19 18 18 17 17 18 17 23 29 34 67 103 102 97 103 100 95 90 86 87 87 83 76 68 66 62 60 59 61 71 85 96 97 89 83 81 81 84 89 96 99 96 92 87 82 77 74 74 77 79 82 85 84 78 68 55 48 45 41 37 31 28 32 35 40 44 43 37 34 37 39
26 27 27 27 26 25 24 23 22 22 22 22 21 20 19 19 19 18 18 19 19 27 33 41 76 105 99 99 104 93 90 96 96 97 99 97 92 87 82 77 74 71 73 82 92 100 100 90 83 81 83 90 96 100 101 97 91 85 80 77 76 78 80 84 86 84 76 63 51 43 39 36 32 29 27 29 33 38 44 47 43 37 36 37 40
24 26 26 26 26 25 25 25 25 24 23 22 22 21 20 21 20 20 20 20 21 29 38 53 85 104 99 100 102 86 80 94 102 100 100 101 100 100 99 94 91 87 88 94 100 105 105 98 92 90 93 99 103 102 96 91 86 81 79 79 80 83 86 88 83 70 57 46 39 36 33 31 29 29 30 33 39 44 49 50 44 38 38 41 41
24 25 26 26 25 26 26 26 25 24 25 24 23 21 20 21 21 21 22 20 22 32 47 70 95 103 99 101 102 93 84 92 101 100 99 100 99 101 101 98 98 99 100 101 101 104 107 105 101 99 101 101 100 97 92 90 87 83 81 82 85 89 86 75 61 49 41 38 36 34 32 31 31 32 35 41 47 51 54 53 47 41 42 45 43
25 25 26 26 26 26 26 27 28 27 27 23 24 29 25 20 21 22 21 23 30 44 63 87 101 101 100 101 102 103 98 98 102 100 99 100 100 101 98 94 97 102 105 104 102 102 103 102 100 98 99 98 96 95 95 93 88 83 84 88 89 81 66 52 44 41 40 39 37 35 33 32 33 36 42 49 54 59 62 57 49 45 44 45 42
25 25 27 28 26 27 28 29 29 29 30 34 47 56 41 23 21 22 24 38 57 73 87 99 102 99 102 102 102 104 103 101 102 100 100 101 101 99 96 95 98 102 104 105 103 102 100 96 92 92 96 99 99 98 95 90 86 87 89 85 75 60 50 47 46 45 42 39 37 35 34 35 37 41 48 56 63 68 68 60 51 49 47 45 41
25 25 26 29 28 29 29 29 38 47 52 64 84 89 68 42 33 32 39 64 88 97 100 102 101 100 101 101 102 104 104 103 102 99 100 102 102 100 97 95 96 97 97 97 96 95 95 92 88 92 99 102 99 94 90 88 88 88 83 72 62 58 55 51 47 43 39 36 35 34 35 38 41 46 54 63 73 76 70 59 52 52 50 46 41
28 27 28 30 29 31 28 27 54 83 87 90 98 100 93 76 62 60 69 85 99 101 100 101 100 100 101 103 103 103 103 101 100 101 103 103 99 96 91 85 85 87 86 85 87 92 96 95 93 98 99 94 90 88 88 88 87 83 76 68 65 61 53 47 43 39 36 34 34 35 38 41 44 51 61 71 80 78 66 56 54 53 50 45 42
31 30 29 31 29 31 31 33 63 96 100 99 101 99 101 97 88 88 93 98 100 100 100 101 99 100 102 103 102 100 101 101 100 104 104 100 98 97 93 87 87 93 95 94 96 101 102 99 96 93 88 83 84 87 89 87 86 83 76 68 63 56 48 44 40 36 34 33 35 36 38 40 47 56 67 79 82 73 60 55 55 52 47 44 44
34 34 30 31 31 30 38 54 80 101 101 100 102 99 99 101 100 100 99 99 100 100 101 101 100 102 103 101 100 99 100 100 102 106 104 101 101 103 101 96 93 97 100 99 100 101 98 93 90 86 82 83 86 88 89 87 84 79 72 64 58 51 44 41 37 34 34 33 34 35 35 39 49 62 75 83 76 64 56 55 54 49 45 46 48
34 38 33 32 33 31 37 50 67 87 100 101 101 102 100 100 102 101 99 99 100 100 100 100 99 101 102 100 99 100 101 100 103 105 103 101 102 103 100 93 88 88 89 89 90 91 90 88 87 85 84 84 85 87 87 84 79 73 67 61 54 46 41 38 36 34 32 33 34 34 35 42 53 66 76 75 64 57 55 53 50 48 48 51 53
34 39 37 33 33 33 34 38 43 58 74 81 84 89 92 98 102 101 100 100 100 100 100 100 100 101 103 103 101 101 102 102 102 103 102 101 101 99 94 87 86 87 87 87 87 86 85 84 84 84 82 81 82 85 84 79 74 69 63 56 48 41 39 37 34 33 33 33 34 34 38 46 56 64 66 61 57 55 53 50 49 51 55 57 54
34 36 38 35 34 33 33 36 45 55 60 65 77 84 87 97 103 101 100 100 99 101 100 100 101 101 103 106 105 104 104 102 101 102 102 101 100 97 93 89 91 92 90 89 87 84 80 79 79 76 74 75 76 77 77 74 68 63 58 52 45 39 37 35 33 33 33 33 33 36 41 47 53 56 54 54 55 53 50 51 53 57 61 59 52
35 35 36 36 35 35 34 34 41 58 69 75 88 96 96 99 102 100 100 100 99 100 100 100 101 101 102 104 103 104 105 102 100 102 101 98 95 95 94 94 94 93 90 85 80 78 75 72 70 68 68 69 69 70 71 68 63 59 55 49 43 38 36 35 34 34 33 33 33 35 39 44 47 49 52 54 53 51 52 56 60 64 62 55 50
36 35 35 37 36 35 36 35 34 44 61 76 88 99 102 100 101 100 99 100 101 100 100 100 100 100 101 101 102 104 104 102 100 100 96 92 90 91 94 95 93 90 85 78 73 70 70 70 70 70 68 65 63 65 65 62 58 55 51 46 43 40 38 36 35 35 34 33 34 35 38 42 46 50 54 54 52 53 58 62 66 67 60 52 50
37 36 36 37 38 36 35 36 36 36 44 56 71 92 105 102 99 101 100 99 101 100 100 101 101 101 101 101 102 103 102 100 99 94 89 88 88 89 92 93 89 82 74 70 68 66 67 70 70 66 60 56 57 59 59 59 58 54 49 46 45 43 40 38 38 37 36 35 36 38 41 45 49 53 54 54 56 59 63 68 70 64 56 52 52
37 38 39 40 41 41 39 38 39 39 39 41 48 70 97 104 100 101 101 100 100 100 100 101 101 101 101 101 102 103 101 98 94 89 87 89 90 91 91 90 87 81 73 67 65 64 65 64 62 58 55 55 58 61 62 62 60 57 53 49 47 45 43 42 41 40 39 39 40 42 46 50 53 55 56 58 61 65 70 73 69 60 55 54 52
42 42 45 46 45 45 44 42 41 41 42 42 39 49 76 99 103 102 102 101 100 100 100 100 101 102 104 104 103 102 101 97 93 91 90 91 91 92 92 89 86 81 74 70 66 63 64 64 63 63 63 65 67 68 69 66 63 59 55 52 50 49 48 47 46 45 44 44 46 49 52 55 58 60 62 63 67 73 77 73 64 58 56 54 51
50 48 50 51 49 48 47 45 44 43 43 45 43 42 56 80 96 101 102 102 100 100 101 100 100 101 102 103 103 102 100 95 91 90 89 90 92 91 87 82 78 72 67 66 65 62 66 71 74 75 76 76 76 74 72 69 65 61 59 58 58 57 56 55 55 55 55 55 56 58 61 64 65 65 66 68 74 81 78 69 61 58 56 53 50
53 50 52 53 52 50 48 46 45 45 43 43 44 43 45 57 76 89 96 99 100 100 100 101 103 103 102 102 102 101 98 92 90 90 90 89 86 80 73 68 66 65 63 64 66 68 75 81 83 85 86 84 81 78 75 71 68 66 65 65 66 65 61 59 60 62 62 63 65 68 71 72 70 69 71 75 82 83 74 64 61 58 55 52 51
56 51 49 51 52 51 50 48 47 46 44 42 41 42 41 44 53 65 73 81 88 94 97 99 101 101 101 101 101 99 96 91 88 84 78 73 67 62 63 63 63 67 71 74 79 82 86 91 92 92 94 91 86 81 76 72 69 66 66 66 68 68 62 58 60 63 66 70 74 77 77 76 73 74 77 83 85 78 69 63 61 57 54 53 56
60 55 50 49 51 52 51 51 50 48 46 44 42 41 40 39 41 46 51 55 63 73 81 85 87 86 86 89 91 89 85 80 74 68 63 61 61 65 73 78 79 84 89 92 96 95 93 95 97 97 97 93 85 78 74 70 65 63 65 66 65 62 57 55 59 65 72 80 84 83 80 79 78 78 83 87 82 72 67 65 60 56 54 57 61
60 59 56 54 54 53 52 51 51 50 48 46 44 41 41 40 40 40 41 42 44 49 57 63 66 63 61 66 71 72 72 72 73 76 80 84 87 90 94 96 98 104 104 101 101 99 95 96 98 98 97 90 80 74 70 64 59 60 63 61 57 54 53 57 63 71 80 86 86 83 80 81 83 85 87 84 76 71 70 65 58 55 58 62 63
60 59 56 56 55 53 52 52 51 51 49 47 46 45 44 42 40 40 40 39 38 37 39 44 49 53 58 63 70 75 80 86 92 97 101 103 103 102 103 105 108 111 108 104 103 99 95 95 94 89 86 80 72 67 63 57 55 57 58 54 53 55 58 64 71 76 82 86 86 84 83 87 91 91 86 79 74 74 71 63 58 58 62 65 62
65 60 56 54 53 52 52 52 51 50 48 47 47 46 44 43 41 39 35 33 36 38 38 40 46 57 66 73 80 86 91 96 101 103 103 103 102 102 105 106 106 102 95 91 90 87 85 84 80 75 75 73 68 64 61 58 57 57 57 56 59 65 68 71 75 80 86 90 91 91 92 95 96 90 81 77 79 77 68 61 60 62 64 64 60
70 65 61 58 55 52 51 50 50 50 48 48 48 46 45 44 39 37 41 51 66 75 74 73 76 79 81 86 92 97 100 102 102 101 101 102 101 102 104 103 100 97 92 87 86 88 90 89 84 85 87 83 76 72 68 64 62 60 61 66 71 73 74 76 81 88 94 94 94 97 100 99 93 83 80 85 83 74 65 62 63 64 64 62 59
70 66 63 61 59 56 53 51 50 50 48 49 48 45 45 42 38 53 79 92 97 101 99 97 100 100 97 98 101 100 100 98 98 99 98 97 100 104 105 103 102 103 103 100 99 101 103 100 97 98 96 87 80 76 71 65 62 62 68 76 80 80 81 85 90 94 95 94 96 99 98 93 86 83 89 93 82 69 65 65 65 64 62 60 58
69 67 64 62 61 59 58 57 54 52 50 49 48 45 42 36 37 62 95 103 97 98 100 100 102 102 102 103 103 102 102 97 95 99 99 98 102 105 103 101 102 102 100 100 102 104 103 101 101 100 92 81 74 68 63 62 63 69 79 86 87 89 90 93 94 94 94 96 99 98 94 90 88 92 100 95 78 67 68 68 66 64 61 59 59
71 68 67 66 65 64 65 64 60 58 53 49 48 43 37 40 47 59 80 95 99 100 100 100 100 100 97 92 86 89 99 102 100 101 100 99 102 102 98 97 99 99 99 98 95 92 90 93 98 92 78 67 62 59 60 66 73 80 86 88 90 93 95 95 96 95 95 99 100 97 95 96 98 103 105 93 76 69 71 70 67 64 62 61 60
78 74 72 72 71 69 69 66 63 62 59 54 53 43 36 56 80 82 84 94 95 90 89 93 93 86 77 68 66 77 93 101 102 102 100 99 100 100 101 101 99 99 102 101 94 88 87 89 87 79 68 63 64 66 70 76 80 81 82 84 91 98 100 98 95 93 91 92 92 94 99 105 111 112 104 89 77 74 74 71 67 65 64 63 60
85 83 81 80 78 75 73 71 68 68 65 62 58 45 34 53 81 90 90 88 76 63 65 72 72 67 60 57 66 85 99 101 100 101 101 100 100 100 101 102 99 97 100 102 100 98 98 93 82 79 82 83 82 83 84 82 81 81 83 89 97 104 104 97 90 88 89 88 90 95 102 108 113 112 100 87 81 78 74 71 69 68 66 63 59
90 90 88 86 85 82 80 79 75 72 70 67 62 52 40 41 55 68 73 71 59 53 64 75 76 76 79 81 84 92 100 101 101 101 100 100 101 102 101 100 99 98 99 101 101 101 102 98 90 91 97 98 98 98 94 88 87 89 92 96 101 105 102 92 86 87 90 91 95 101 103 104 105 105 98 90 84 78 74 73 72 71 68 62 57
91 93 91 87 87 87 87 85 80 77 76 72 67 62 52 43 44 46 46 49 52 59 78 98 101 96 100 103 101 100 100 101 102 102 100 99 100 101 100 99 100 100 100 101 101 100 100 100 99 98 99 101 102 101 96 93 95 98 99 100 101 103 98 90 86 89 90 92 95 99 101 100 99 99 98 92 83 77 75 76 76 74 69 61 57
90 93 91 87 87 88 87 85 82 81 81 78 74 70 63 55 51 44 39 49 64 70 80 96 105 105 104 103 100 100 102 100 100 102 101 99 99 101 101 99 100 102 100 99 101 101 99 99 100 99 101 102 101 97 96 98 100 101 102 102 101 100 96 91 88 89 88 88 89 91 92 93 96 100 99 90 81 77 77 78 78 75 67 59 57
83 90 93 92 89 86 85 84 84 85 86 83 79 76 71 66 61 53 45 46 56 69 81 92 100 103 103 100 98 100 101 100 99 101 102 100 99 101 102 100 100 101 100 100 101 98 95 97 100 101 102 101 97 96 99 100 101 101 102 102 100 99 97 93 88 87 87 88 89 89 89 93 100 102 96 85 79 80 81 81 79 75 67 59 58
78 89 99 100 93 86 84 85 88 91 91 88 84 81 76 71 66 62 58 50 50 67 86 94 98 101 101 99 99 100 100 99 99 100 101 100 99 100 103 102 101 101 100 100 100 98 95 98 102 102 101 98 96 99 101 100 102 101 99 100 102 101 100 95 87 86 88 90 91 90 92 99 104 98 87 81 81 84 85 84 81 75 69 64 62
81 92 104 106 101 94 89 89 94 98 95 90 88 82 77 74 70 65 62 59 63 82 99 101 100 103 103 100 100 101 101 100 99 100 100 100 98 99 101 101 100 101 101 100 99 100 100 101 102 101 99 97 98 100 101 100 101 99 99 103 107 107 104 96 87 85 88 92 94 93 94 101 101 90 81 81 84 88 90 88 83 79 76 74 71
84 91 102 106 102 93 87 88 94 96 92 88 87 81 79 87 90 82 72 66 70 88 101 101 100 102 104 103 102 101 101 100 100 101 101 101 100 99 101 102 101 100 101 100 99 100 100 101 102 100 98 99 100 100 100 101 100 99 101 107 110 108 102 93 86 86 89 93 96 96 95 98 95 84 80 83 88 94 95 91 88 87 85 83 81
83 88 99 105 100 89 82 83 88 90 86 84 84 81 83 95 103 99 91 84 85 93 100 100 101 105 106 104 100 99 99 99 100 101 101 100 101 100 99 101 100 98 99 100 100 101 101 101 100 98 97 99 100 100 101 100 99 101 104 106 104 99 93 89 87 87 88 92 97 98 98 97 91 82 81 87 93 97 98 95 95 96 94 93 93
83 88 100 105 99 91 85 82 82 83 82 82 83 82 82 86 91 95 99 101 100 101 102 100 102 105 104 100 99 101 103 102 101 101 100 100 102 100 97 98 99 99 100 100 100 101 100 99 99 98 99 100 100 100 100 100 101 105 106 103 99 92 89 90 89 87 88 92 98 100 99 96 91 85 84 91 97 100 100 101 102 103 100 96 95
82 86 98 102 98 91 86 81 78 77 77 77 80 82 81 78 75 74 80 91 99 103 102 100 101 103 103 100 98 100 104 105 103 100 98 100 101 100 99 99 99 99 100 100 100 101 100 99 99 99 100 101 100 100 101 102 105 105 102 99 97 92 90 92 90 88 90 94 98 99 97 95 94 90 88 94 101 102 102 104 106 107 104 97 93
83 84 92 98 95 88 82 77 74 74 75 75 77 78 80 86 88 80 72 79 93 102 104 102 100 101 101 101 99 99 101 102 102 100 99 101 101 100 101 101 99 99 100 100 100 101 100 100 100 100 100 101 101 102 103 103 101 98 96 95 93 91 92 93 91 90 93 97 99 96 93 94 96 92 91 98 104 103 102 105 107 108 106 100 94
Wind_Speed
60 60 60 60 60 59 59 58 57 56 55 54 53 52 51 51 51 50 50 50 50 47 46 46 44 40 36 34 34 37 41 42 40 37 34 32 32 32 32 33 34 34 33 32 32 33 34 33 33 33 34 35 36 37 39 41 43 45 45 46 46 46 45 43 41 41 41 42 45 49 51 51 51 51 51 51 53 53 53 53 53 51 49 47 44
60 60 60 61 61 61 60 59 58 58 57 56 54 53 52 52 51 51 51 51 50 49 48 47 45 42 40 38 36 36 38 40 40 40 40 39 38 36 35 36 36 35 35 34 35 36 37 37 36 36 37 38 39 40 42 44 46 47 47 47 47 47 45 43 42 42 43 45 48 50 50 50 50 50 51 51 52 53 54 54 53 51 50 47 44
57 57 58 59 60 61 61 61 60 59 59 57 56 55 54 54 53 52 52 52 51 49 48 48 46 44 43 42 41 39 38 38 39 40 42 43 43 41 40 39 38 38 37 38 38 39 39 40 39 39 40 41 42 43 45 47 48 48 47 47 47 47 46 45 44 45 46 48 50 50 49 49 49 49 48 47 48 51 53 54 52 51 50 47 45
53 54 54 55 57 59 60 60 59 59 58 58 57 57 56 55 54 53 52 53 52 50 49 48 48 47 45 44 44 44 42 41 41 42 43 43 43 43 42 41 39 39 39 39 41 42 42 42 42 42 43 43 44 46 47 49 49 49 48 47 47 47 47 47 48 48 49 50 51 51 51 52 52 50 47 43 43 47 50 50 50 50 48 47 45
50 50 50 51 53 55 57 57 56 56 57 57 57 57 57 57 56 54 53 53 53 53 51 50 49 48 47 45 44 45 45 44 43 43 44 43 41 41 41 40 39 38 38 39 40 42 43 44 44 45 45 46 47 48 49 49 49 48 47 46 46 47 48 49 50 51 52 52 52 52 53 55 55 52 47 43 43 46 48 48 48 48 47 47 46
48 48 47 48 49 51 52 53 52 53 54 55 55 57 57 57 57 56 54 53 53 53 53 51 50 48 46 44 43 44 44 44 44 43 43 42 40 39 39 39 38 37 37 39 41 42 44 45 46 47 47 47 48 49 49 49 49 48 47 46 46 47 49 50 51 52 53 53 54 54 55 55 54 51 49 47 46 46 46 47 47 47 46 47 46
48 47 46 46 47 48 48 49 49 50 50 52 53 54 56 57 57 56 55 53 53 53 52 51 50 48 45 42 42 43 44 45 45 44 43 42 40 39 39 39 38 38 38 40 41 43 45 46 47 47 47 47 48 48 48 48 48 48 47 47 48 48 49 50 52 53 54 55 56 56 56 54 52 51 51 51 49 47 45 45 45 46 47 48 47
48 46 45 45 46 46 45 46 46 47 47 48 49 51 53 55 56 56 55 54 52 52 51 50 49 48 45 42 42 43 44 44 45 45 44 43 43 42 41 41 40 40 41 42 42 43 45 46 46 46 46 46 47 47 48 48 48 48 49 49 49 49 50 51 52 53 54 55 56 55 54 52 51 51 51 52 51 50 48 45 44 44 46 48 49
48 47 46 45 45 44 44 43 43 43 43 44 46 48 50 52 53 54 54 54 52 51 50 49 47 46 45 42 42 41 40 41 42 44 45 45 45 45 44 43 42 42 43 44 44 44 45 45 45 45 46 46 46 47 47 48 49 49 50 50 50 50 51 51 52 53 54 54 53 52 51 50 50 51 51 51 50 50 49 47 46 45 45 46 48
49 48 47 46 44 43 42 41 40 40 41 41 42 45 46 48 50 51 52 52 51 50 49 47 44 42 42 39 38 35 33 37 41 42 44 45 45 45 44 42 42 43 43 44 44 45 45 45 45 45 46 46 46 47 48 48 49 50 51 51 51 51 52 53 53 53 52 51 51 50 49 49 50 50 50 49 48 48 47 46 47 48 48 48 48
49 48 47 46 44 42 40 39 39 39 39 39 40 42 43 45 46 47 48 48 48 48 47 44 41 39 39 36 34 30 28 32 38 39 40 42 42 41 40 40 41 42 43 44 44 45 45 45 45 45 45 46 46 47 48 49 50 50 51 51 52 52 53 53 52 51 50 49 49 48 49 49 49 49 49 48 47 46 45 45 46 48 50 51 51
49 48 47 45 43 40 39 38 39 38 38 38 39 40 41 41 43 44 45 45 45 45 44 42 40 39 39 36 32 32 32 33 34 34 34 35 35 34 36 38 40 41 42 43 44 45 45 45 45 45 45 45 46 47 48 49 50 51 52 52 53 52 51 50 49 48 47 47 47 48 49 49 49 49 49 49 48 47 46 46 48 50 51 52 53
48 47 46 45 42 40 39 38 38 36 36 37 38 39 39 40 40 41 42 42 42 42 41 41 40 39 39 35 29 30 35 34 31 31 30 29 31 33 36 38 40 41 42 43 43 44 44 44 44 44 44 45 46 47 49 50 51 52 52 52 51 50 48 47 46 45 45 46 47 48 49 49 49 49 49 49 49 48 47 47 49 50 52 53 54
47 47 45 44 42 40 38 37 35 33 33 36 37 38 38 38 38 38 39 39 39 39 39 38 38 38 38 34 28 29 34 35 33 33 33 33 36 39 39 39 39 41 41 41 42 43 43 44 44 44 45 45 47 48 50 51 52 52 51 49 47 45 44 44 44 45 46 47 48 49 50 50 50 50 50 49 49 48 49 50 51 52 52 53 54
47 46 45 43 41 39 37 35 32 30 30 33 35 36 35 35 36 35 35 36 35 36 36 36 37 38 37 34 30 30 35 37 37 37 37 38 41 42 40 37 37 38 39 40 41 42 42 43 43 44 45 46 47 48 50 50 50 49 47 45 43 43 43 44 45 46 47 49 50 50 51 51 51 51 51 50 49 49 51 53 54 55 55 55 56
46 46 44 41 40 38 36 34 29 27 29 32 33 33 32 32 33 32 33 34 34 34 35 35 36 37 38 35 33 33 36 37 38 38 38 39 40 39 37 35 36 37 38 40 41 41 42 42 42 43 43 44 45 46 47 46 46 44 43 42 43 44 45 46 47 48 49 50 51 51 51 51 51 51 51 50 50 51 53 55 56 56 57 58 59
45 45 42 40 39 37 33 32 28 26 30 33 33 31 30 30 30 30 31 33 34 34 34 34 35 36 38 37 35 35 36 36 36 37 37 37 36 34 33 34 35 36 38 39 39 39 39 40 40 40 41 42 43 43 44 43 43 43 43 44 45 46 47 48 49 50 51 51 51 51 51 51 51 51 51 51 50 52 55 57 57 58 59 60 61
43 44 42 40 38 34 31 33 31 28 31 34 33 30 29 30 30 28 29 31 32 33 33 34 35 35 35 35 35 36 36 35 36 36 36 35 33 31 31 32 33 34 35 35 35 36 37 38 38 39 40 41 42 42 43 42 42 43 44 46 47 48 49 49 50 51 52 52 51 51 51 51 51 52 51 51 51 54 56 58 58 59 60 61 63
43 44 43 40 37 34 33 35 34 32 33 34 33 31 29 29 29 29 28 29 30 31 33 34 35 35 34 34 34 34 34 34 34 35 36 35 33 31 31 32 33 34 35 36 36 37 38 39 40 41 41 42 42 42 43 43 43 44 46 47 48 49 49 50 51 52 52 52 52 52 52 52 51 51 51 51 53 56 57 58 59 60 61 63 64
43 43 42 40 38 36 37 38 37 36 36 36 35 34 33 31 30 29 29 29 30 31 32 33 33 34 36 37 36 35 36 37 37 38 38 37 34 32 32 33 34 35 37 38 39 39 40 41 41 42 42 42 43 43 44 44 45 45 46 47 48 49 50 50 51 52 52 52 52 52 52 52 51 51 51 52 55 57 58 59 61 62 64 65 66
44 43 42 42 40 39 39 39 39 39 39 39 38 38 37 35 33 31 30 30 31 32 32 32 32 34 38 41 41 40 40 40 40 40 39 36 34 34 34 35 36 37 38 39 40 40 41 41 42 42 43 43 43 44 45 45 45 46 46 47 48 49 50 51 51 52 52 52 52 52 52 51 51 51 52 54 56 58 60 61 62 64 66 66 67
44 44 43 43 42 40 39 39 38 39 40 40 39 39 38 36 35 33 32 32 33 34 35 35 35 37 40 43 44 44 42 41 39 38 37 36 35 36 37 37 38 38 39 40 40 41 41 42 42 42 43 43 43 44 45 46 46 46 47 48 48 49 50 50 51 52 52 52 52 52 51 51 51 52 53 55 57 59 61 63 64 66 67 67 67
44 44 44 43 42 41 41 40 38 37 38 39 38 38 38 36 35 33 32 33 34 35 36 37 38 39 41 43 44 44 42 40 39 39 39 38 38 38 38 38 38 39 40 40 40 41 42 42 43 43 43 43 44 45 45 46 46 47 48 49 49 49 50 51 52 52 52 53 53 52 52 52 52 54 55 57 59 61 63 64 66 67 67 68 68
43 43 43 42 42 42 42 41 39 38 37 38 38 38 38 38 37 35 33 33 34 35 37 38 40 41 42 43 43 43 42 42 42 42 42 40 39 39 38 38 39 40 41 41 42 43 43 43 43 43 44 45 46 46 46 47 48 49 49 49 50 50 51 52 53 53 53 53 53 53 53 53 54 55 57 59 61 63 64 65 67 67 68 68 67
41 41 42 42 43 43 42 41 40 39 38 38 37 37 37 38 39 38 36 34 35 36 37 38 40 42 43 43 44 44 43 43 44 43 42 41 40 39 39 40 41 42 42 43 43 44 43 43 43 44 46 47 47 47 48 48 49 49 49 50 50 51 52 53 54 54 54 54 54 54 54 55 56 57 59 61 63 64 65 67 67 67 67 67 66
39 40 41 42 43 43 43 42 41 41 40 39 38 37 37 38 39 40 39 37 36 35 36 38 39 41 42 42 43 43 43 43 44 43 41 41 40 40 40 40 41 42 43 44 44 44 44 45 46 47 48 48 48 48 47 48 48 50 50 51 51 52 53 54 54 54 55 55 55 55 56 57 58 59 61 62 64 65 67 67 67 67 66 65 64
38 39 40 41 42 43 43 43 42 41 40 39 39 38 37 37 38 40 41 40 39 37 37 37 38 39 40 41 41 42 42 43 43 42 41 41 40 40 40 41 43 44 45 45 46 46 47 47 48 48 48 47 47 47 48 49 50 50 50 51 51 52 53 54 55 55 56 56 57 57 58 59 60 61 62 63 65 66 67 67 67 66 65 64 64
38 39 39 41 42 42 42 42 42 41 41 40 40 39 39 38 38 38 39 41 41 40 40 39 40 40 41 41 41 42 43 44 43 42 42 42 42 42 43 44 45 46 46 47 48 48 48 48 47 47 47 47 47 48 49 50 50 50 50 51 52 53 55 56 56 57 57 57 58 58 59 60 61 62 63 64 66 67 67 67 66 65 64 64 63
38 39 39 40 40 41 42 42 42 42 42 41 41 41 40 40 39 38 38 39 40 41 42 42 42 42 42 42 43 43 44 44 43 43 43 44 44 44 45 45 46 46 47 47 48 48 47 47 47 46 46 47 47 48 49 49 50 50 51 52 53 55 57 58 58 58 59 59 59 59 60 61 62 63 64 65 66 66 66 65 65 64 63 63 62
38 39 40 40 40 40 41 41 42 43 43 43 42 41 41 41 41 40 39 39 39 40 41 43 44 44 44 44 44 45 45 45 44 44 44 44 44 45 45 46 46 47 47 47 47 47 46 46 47 47 47 47 47 48 49 50 51 53 54 54 55 57 59 59 60 60 60 60 60 60 61 62 63 64 65 66 65 65 64 64 63 63 62 61 61
37 38 39 40 39 39 40 40 41 42 42 42 42 42 41 41 41 40 40 39 39 39 40 42 43 44 44 44 45 45 45 45 44 43 43 43 44 44 45 45 46 46 46 46 46 46 46 46 47 47 47 47 48 49 51 53 54 55 56 56 57 59 60 61 61 62 62 61 61 61 63 64 65 65 65 65 64 64 63 62 62 62 61 60 61
35 36 38 38 39 39 39 40 40 41 41 42 42 41 41 40 40 40 40 40 40 40 41 42 43 43 43 43 43 43 43 43 42 42 42 42 43 43 44 44 45 45 45 45 46 46 47 47 47 47 47 49 50 52 54 55 56 57 57 57 59 61 62 62 62 62 61 61 61 62 64 65 66 65 65 64 63 62 61 61 61 60 60 60 61
35 36 37 38 38 38 38 39 40 40 41 41 40 40 39 39 39 39 39 39 40 41 42 43 44 43 43 42 41 41 41 41 41 41 41 41 41 42 43 44 44 44 45 46 46 47 47 47 48 49 50 51 53 54 55 56 57 57 58 59 60 61 62 62 61 61 60 60 62 64 65 66 65 65 64 63 62 61 61 61 60 59 59 60 61
35 36 37 37 37 37 37 38 39 39 40 39 39 39 38 38 38 38 38 39 41 43 44 44 44 44 43 42 41 40 40 39 39 39 39 40 41 42 44 45 45 46 47 48 48 48 48 49 50 51 52 53 54 55 56 57 57 57 58 59 60 61 61 61 61 60 60 61 64 65 65 65 64 64 62 61 60 60 60 60 58 58 58 60 61
35 36 36 36 36 36 36 36 37 37 38 38 38 38 37 36 37 36 37 39 40 40 41 42 42 42 40 39 38 37 37 36 36 38 40 41 43 45 46 47 46 47 47 47 48 48 48 48 50 51 51 53 54 55 56 55 55 57 58 59 60 60 60 60 60 60 61 64 65 65 64 64 63 62 61 60 59 59 59 58 57 57 58 60 62
35 35 36 36 36 35 35 35 35 36 37 36 37 37 35 34 31 27 29 33 35 36 37 38 38 38 37 37 37 36 36 37 38 40 42 43 44 45 44 44 43 44 45 46 47 47 47 47 48 49 51 53 54 54 54 54 56 57 58 58 59 59 60 60 61 62 64 65 65 64 63 63 62 60 59 58 59 59 59 57 56 57 58 60 62
34 35 35 35 36 35 35 34 34 35 35 35 36 35 33 32 29 27 30 32 31 33 34 32 32 34 34 35 36 37 38 38 39 40 40 40 42 42 41 40 41 42 43 44 44 45 46 47 48 50 52 54 54 54 54 56 57 57 57 57 58 59 60 62 63 64 65 64 64 63 63 61 60 59 58 58 59 60 58 57 56 57 58 60 62
33 33 33 34 34 34 34 34 34 35 35 35 34 32 29 30 33 35 37 38 37 38 39 37 36 38 38 38 38 38 39 39 38 39 36 33 36 41 42 42 43 42 42 43 45 47 49 50 52 54 55 55 55 56 56 57 57 57 56 57 58 60 61 62 63 63 63 63 63 63 62 60 58 57 57 58 60 60 57 56 56 57 58 60 61
32 32 32 32 33 34 35 35 35 35 34 34 33 30 28 30 36 40 42 44 47 48 48 47 46 46 45 43 40 39 38 36 36 36 33 30 33 38 42 45 44 43 45 48 52 53 53 54 55 56 57 56 56 56 56 57 57 56 56 57 59 60 61 62 63 63 63 63 62 61 60 58 56 56 57 59 60 59 56 55 56 57 58 60 60
32 31 31 32 33 33 34 34 34 34 34 33 33 33 32 34 39 42 44 47 48 47 48 51 52 51 48 44 40 38 35 31 31 30 28 29 34 39 43 46 46 46 49 53 54 54 55 56 57 56 55 55 56 57 57 57 57 57 57 59 60 61 63 64 64 64 63 62 61 59 57 56 56 56 58 60 60 57 55 55 56 57 59 59 60
33 32 32 32 33 33 33 34 35 35 35 35 34 35 35 38 43 45 46 45 43 41 43 48 50 47 43 40 40 38 34 30 31 31 29 31 36 40 43 46 48 49 52 54 55 55 56 55 55 54 54 56 58 59 58 58 57 57 58 60 61 63 65 66 65 63 61 59 58 57 56 55 56 57 59 60 57 55 54 55 56 57 59 59 59
34 33 33 33 33 33 34 35 36 36 36 36 35 36 36 39 43 45 46 43 40 40 42 44 44 42 39 37 38 37 35 34 35 37 35 34 37 42 45 47 49 51 53 54 55 55 56 55 55 55 56 57 59 60 59 58 57 58 61 63 64 65 67 66 63 61 59 58 58 57 56 57 58 59 59 58 55 53 53 54 56 57 59 59 58
36 35 34 34 34 34 35 36 36 36 36 36 36 36 36 38 40 42 43 42 41 43 45 45 45 43 39 35 34 34 36 37 38 39 38 36 38 44 48 50 51 53 55 55 55 56 57 57 57 57 58 59 60 59 58 58 58 61 64 66 66 67 67 64 62 61 61 61 60 59 59 58 58 58 56 54 53 52 53 54 55 57 58 58 57
38 36 35 35 35 35 35 36 36 36 36 36 35 35 36 37 39 39 41 42 41 41 44 46 47 47 43 36 32 33 36 37 38 40 41 40 40 45 50 52 54 55 57 56 57 58 59 58 58 59 60 61 60 58 58 59 61 65 68 68 67 68 66 63 62 62 63 63 62 60 59 58 56 54 52 52 52 52 53 54 56 57 57 57 56
39 37 36 35 35 35 35 35 35 36 36 36 35 35 35 36 36 36 36 36 35 37 42 47 48 48 46 41 37 36 37 37 37 39 42 42 43 46 51 54 55 56 57 57 57 58 59 60 60 62 62 61 59 58 60 62 65 68 69 69 68 67 65 63 63 64 64 63 61 59 57 55 52 51 51 51 52 52 53 55 56 57 57 57 56
41 39 38 37 36 36 36 35 36 36 37 36 35 35 34 34 35 34 33 33 33 36 40 45 47 48 48 46 43 42 41 40 41 44 46 46 46 48 52 56 56 55 55 56 57 59 62 63 63 63 62 61 60 61 63 65 68 71 70 69 68 66 64 64 64 65 65 63 61 58 55 53 51 51 51 51 52 52 54 55 56 56 56 56 55
43 42 41 39 38 37 36 36 36 37 37 37 36 34 32 33 34 33 31 31 34 37 40 43 45 48 49 49 47 46 45 44 44 45 45 45 45 47 50 53 55 55 56 58 60 62 63 63 63 63 63 62 63 64 66 68 71 72 70 68 66 65 64 65 65 66 65 63 60 57 55 53 52 52 52 51 51 52 54 55 55 55 55 55 54
45 44 42 41 40 39 38 36 37 38 37 37 37 35 34 34 33 33 32 31 32 36 40 42 43 45 48 48 47 46 46 45 44 44 42 42 43 45 48 51 54 56 58 59 60 61 63 64 64 65 65 65 66 67 69 71 72 71 68 66 64 64 65 66 66 66 65 63 60 57 55 53 53 52 52 51 51 52 53 54 54 54 54 53 53
46 45 44 43 42 41 39 38 38 38 37 37 38 38 38 38 36 35 35 34 34 36 39 41 43 45 47 47 47 48 50 50 47 43 41 43 46 48 50 53 56 57 58 60 62 64 65 66 65 65 66 67 68 70 72 73 72 69 66 65 65 65 66 66 67 67 66 63 60 57 55 54 53 52 51 51 51 52 53 53 53 53 53 53 53
47 46 45 44 43 42 41 40 39 38 38 38 38 38 39 40 40 39 39 39 40 41 41 42 43 45 46 45 45 47 50 51 49 44 42 44 48 51 53 56 59 60 61 63 65 66 66 65 65 66 68 70 71 72 72 71 69 67 66 66 65 66 67 67 68 68 65 63 60 57 55 53 52 51 50 50 51 52 52 52 53 53 53 53 53
48 47 46 46 45 44 43 42 40 39 39 39 39 39 38 38 39 40 40 42 44 45 45 45 46 46 46 46 47 48 49 49 48 47 48 51 51 51 54 57 59 60 62 64 65 66 66 67 68 69 71 72 73 72 70 68 68 67 66 66 66 67 68 68 69 67 65 62 59 56 53 52 50 49 49 49 50 52 52 52 52 53 53 53 53
Wind_Direction
243 243 244 245 246 246 247 247 248 249 249 249 248 248 248 249 251 253 254 255 255 257 258 260 263 264 265 264 264 263 259 255 254 256 259 263 268 273 279 286 292 296 296 295 296 297 300 302 305 308 311 313 314 315 315 315 315 316 317 319 320 321 321 321 321 322 322 323 323 324 324 324 323 324 325 325 323 321 321 322 322 321 322 323 323
242 243 244 245 246 247 247 248 248 249 249 249 248 248 248 248 250 252 254 255 256 257 258 259 260 262 263 263 262 263 262 261 260 260 262 266 270 274 281 289 294 295 294 293 295 297 298 300 302 305 308 310 311 312 312 313 314 314 315 316 318 320 320 320 320 320 321 321 322 322 322 322 323 324 325 325 322 319 319 320 320 319 320 321 321
242 242 243 244 245 246 247 248 248 248 249 249 249 248 248 248 249 251 252 254 256 258 258 258 259 261 263 262 261 261 264 266 267 266 266 268 271 275 280 287 291 293 292 292 294 297 298 299 301 303 306 308 309 310 311 312 313 313 314 316 317 319 319 319 318 318 319 319 320 320 320 321 322 322 323 322 319 316 316 317 317 316 317 318 319
241 241 242 243 244 245 246 247 247 248 249 249 249 249 249 249 249 250 251 253 255 257 258 258 260 262 263 264 263 262 264 268 270 270 270 271 273 275 278 282 287 290 291 292 294 296 298 299 301 302 305 307 307 308 310 311 311 312 313 315 317 318 318 317 317 317 317 318 319 319 319 320 320 320 321 320 315 313 312 312 312 313 314 315 317
240 241 242 243 243 244 246 247 247 248 248 249 249 249 249 249 249 249 250 251 253 255 257 259 261 262 263 265 266 265 268 271 271 271 270 270 272 273 275 279 284 288 291 292 293 295 297 299 300 301 303 304 305 306 307 308 309 310 312 314 315 316 316 316 316 316 317 318 318 318 319 319 319 320 320 319 315 313 311 310 310 311 313 314 316
238 239 241 242 244 244 246 247 247 247 248 248 249 249 249 249 249 249 249 249 251 252 255 258 260 261 262 264 266 267 270 272 272 271 269 268 269 270 272 276 281 287 291 292 292 294 295 296 297 299 300 302 303 304 305 307 308 309 310 312 313 314 314 314 315 315 316 317 317 317 318 318 318 319 319 319 317 314 311 310 310 311 312 314 316
236 238 239 241 243 245 246 247 247 247 247 248 248 249 249 250 249 249 249 249 249 250 252 255 258 259 260 263 265 267 269 271 272 271 269 267 268 269 271 274 279 285 290 291 292 294 293 294 295 296 298 300 301 303 304 305 306 308 309 310 311 312 312 313 314 315 315 315 316 317 317 317 318 318 318 318 317 315 312 310 310 311 312 315 317
235 236 237 239 242 244 245 246 247 248 248 249 249 249 250 250 250 250 250 250 249 250 250 252 255 256 258 261 264 266 268 271 272 271 270 269 270 271 273 275 279 283 288 291 292 292 292 292 293 295 297 299 301 302 303 304 305 306 307 308 309 310 311 313 314 314 314 314 315 316 316 316 317 317 317 317 317 315 313 311 310 311 313 316 319
233 235 236 238 241 243 245 247 248 249 249 250 250 250 251 251 251 251 251 251 250 249 249 249 251 254 257 261 263 265 269 272 271 271 271 272 272 274 275 277 280 283 287 289 291 290 290 291 293 295 297 299 300 301 302 302 303 305 306 307 309 310 311 312 312 312 313 314 314 314 315 316 316 316 316 316 315 314 313 312 311 311 312 315 318
230 232 235 238 240 243 245 248 250 251 252 252 252 251 251 252 251 251 251 251 250 249 248 248 248 250 255 258 260 264 271 272 270 269 271 272 273 275 278 280 282 285 287 288 288 289 290 291 293 295 297 299 300 301 301 302 303 304 306 307 309 310 310 311 311 312 313 313 313 313 314 315 315 314 314 313 313 312 311 310 310 311 312 314 317
227 230 234 237 240 243 247 250 252 253 254 254 253 252 252 252 252 251 251 250 250 249 248 247 245 245 248 250 252 257 259 259 263 266 268 271 274 277 280 281 283 285 286 286 286 287 289 291 293 295 297 298 300 301 301 302 303 305 306 307 308 309 309 310 312 312 313 312 312 313 314 314 314 313 313 312 312 311 310 309 309 310 312 315 318
227 229 232 236 239 243 247 250 252 253 254 255 254 253 252 252 252 251 250 249 249 248 247 246 243 242 244 245 247 252 251 248 254 262 265 269 274 278 280 282 283 285 285 285 285 286 287 290 292 295 297 299 300 301 302 303 303 305 306 307 308 309 310 311 312 312 312 312 313 314 314 313 313 313 312 312 311 311 310 309 310 312 314 316 318
227 228 231 235 238 241 245 249 252 254 256 255 254 253 251 250 250 250 249 249 247 247 246 244 243 242 242 244 244 248 251 247 248 256 264 271 276 281 283 283 283 284 285 285 285 286 288 290 292 295 297 299 300 301 302 303 303 304 306 307 308 310 311 311 312 312 313 314 314 314 314 313 313 312 311 311 311 311 310 309 310 312 314 316 318
226 227 230 234 237 240 244 248 251 253 255 255 253 251 250 249 249 249 249 248 247 246 246 244 243 240 240 243 242 241 244 243 244 253 263 271 279 285 286 285 283 283 284 286 287 288 289 291 293 295 297 298 300 301 302 302 304 305 307 308 309 310 311 312 313 314 314 314 314 314 314 313 312 312 311 311 310 310 310 310 311 313 314 315 317
226 226 228 233 237 240 243 245 246 248 250 252 250 248 247 248 248 248 247 246 246 246 245 243 241 238 238 240 241 239 241 244 249 255 262 270 277 283 285 285 284 284 285 286 287 288 290 292 294 296 298 299 301 301 302 303 305 307 308 309 310 311 312 313 314 315 314 315 315 314 313 313 312 312 311 311 311 310 311 312 314 315 316 316 318
227 227 227 231 236 238 241 243 244 244 243 244 245 245 245 246 246 246 244 243 243 242 243 243 241 238 238 239 241 240 241 246 252 256 262 269 274 279 283 285 285 286 287 287 288 289 290 293 296 298 299 300 302 302 303 305 307 308 309 309 310 311 313 314 315 315 315 315 315 314 313 313 313 312 312 311 311 311 312 314 316 317 318 319 320
227 228 227 229 233 236 241 243 239 237 238 237 240 244 244 245 246 246 244 242 241 242 242 242 241 238 239 242 244 243 243 246 250 257 264 270 275 280 284 286 286 287 287 287 289 290 292 295 298 299 300 301 303 304 305 307 307 308 308 308 310 312 314 315 315 315 315 316 315 314 313 313 313 312 312 311 311 312 314 316 317 318 319 320 322
227 228 227 227 231 233 238 240 234 232 236 235 236 239 240 242 244 245 246 243 242 242 241 239 238 237 241 246 246 245 244 244 250 260 268 273 278 283 285 285 286 286 287 288 290 291 293 295 297 298 300 302 304 304 305 305 306 306 307 309 311 313 314 314 314 315 316 316 315 314 314 314 314 313 312 311 311 313 315 317 318 318 319 321 322
225 228 228 227 228 227 228 231 229 228 233 233 231 233 235 237 241 243 243 242 241 241 241 240 239 236 238 242 243 242 242 247 257 266 271 275 280 283 284 286 286 286 287 289 290 291 292 294 296 298 300 302 302 302 303 304 304 305 307 310 312 313 314 314 315 316 316 316 315 315 315 315 314 313 312 312 312 314 316 317 318 319 320 322 323
222 225 228 226 225 224 224 228 230 229 232 234 233 233 234 235 238 240 239 237 237 238 239 240 240 236 233 235 238 239 243 252 262 269 273 276 279 281 283 285 286 287 289 290 290 291 293 294 296 297 299 300 301 301 302 302 303 306 308 311 313 314 314 314 315 316 316 316 315 315 315 315 314 314 313 313 314 316 317 318 319 320 322 322 323
222 223 226 226 225 224 225 229 232 233 234 237 237 238 238 237 238 239 237 234 233 233 234 235 235 233 230 232 236 241 246 253 261 266 270 274 277 280 283 287 289 290 291 291 292 293 293 294 296 297 299 300 301 301 301 302 304 306 309 311 313 313 313 314 315 315 316 316 315 315 315 315 315 314 314 314 316 317 317 319 320 321 322 323 322
225 223 224 225 226 227 227 228 231 233 235 236 237 239 239 239 239 239 238 235 233 232 232 232 232 232 231 233 237 242 248 254 260 264 268 272 277 281 285 289 291 291 291 292 292 293 294 295 297 299 300 301 301 301 302 303 305 307 309 311 313 313 313 313 314 315 316 316 315 315 315 315 315 315 315 316 317 317 318 320 321 322 322 322 322
228 225 224 225 227 229 230 230 231 232 233 233 234 236 238 238 238 239 238 237 235 234 234 233 234 234 235 237 241 244 250 255 260 264 268 273 278 282 286 289 290 290 291 292 293 294 295 297 299 300 301 301 301 302 303 304 306 308 310 311 312 312 312 313 315 316 316 316 315 315 315 315 315 315 316 317 317 318 319 321 322 322 322 322 321
230 229 227 227 228 230 232 233 233 234 234 233 233 235 237 237 238 238 238 237 237 237 237 238 238 239 240 242 245 248 252 257 262 265 270 275 279 283 286 288 289 290 292 293 295 296 297 298 299 300 300 301 302 303 304 306 307 308 310 311 312 312 313 314 315 316 316 316 315 315 315 315 316 316 317 317 318 319 320 321 322 322 322 322 321
232 232 231 231 231 232 233 235 236 236 236 235 234 235 236 238 238 237 237 237 238 240 241 242 244 244 245 247 249 252 256 260 264 268 272 276 280 283 286 288 289 290 292 293 295 296 297 297 297 298 299 301 302 304 305 307 308 309 311 312 312 312 313 315 316 316 316 315 315 314 315 315 316 316 317 318 319 320 321 322 322 322 322 321 320
235 234 234 235 235 235 236 236 237 238 239 239 238 237 238 238 239 238 238 238 240 242 244 247 249 250 251 252 254 257 260 263 267 271 275 278 281 284 286 288 289 291 292 294 295 295 296 296 296 297 299 302 304 305 307 308 309 311 311 312 312 313 314 315 316 315 315 314 314 314 315 315 315 316 317 318 320 320 321 322 322 322 321 320 320
239 237 236 237 238 237 238 239 239 240 241 242 242 242 241 241 240 240 240 241 242 244 247 249 252 254 256 257 259 262 264 267 270 274 277 280 282 284 286 288 290 291 292 293 294 294 295 295 296 298 301 303 304 306 307 309 310 310 311 312 313 314 315 315 315 315 314 314 314 314 315 315 316 317 318 319 320 321 321 321 321 321 320 320 320
239 238 237 238 239 239 240 241 242 242 242 242 243 244 244 245 245 244 244 244 245 247 250 252 255 257 259 261 263 266 268 271 273 277 279 281 283 285 286 288 290 291 291 292 293 293 295 296 298 300 301 303 304 306 307 308 309 310 312 313 313 314 314 315 315 314 314 314 314 314 315 315 316 317 318 320 320 321 321 321 321 320 319 319 320
237 238 237 238 239 241 242 243 244 244 244 244 245 246 247 248 249 250 250 250 251 252 254 256 258 260 262 265 266 268 271 273 276 278 280 282 284 286 287 289 289 290 291 291 292 293 295 296 298 300 301 303 305 306 307 308 309 311 313 313 313 313 314 315 315 314 314 314 314 314 315 315 316 318 319 320 320 320 320 320 319 319 319 320 322
238 238 238 238 239 241 243 244 245 247 247 248 248 249 249 250 252 253 255 256 257 258 259 260 262 264 266 267 269 270 272 274 277 279 281 284 285 287 288 288 289 290 290 290 291 293 294 296 297 299 301 303 304 305 306 308 310 311 313 313 313 313 314 314 314 314 315 314 314 314 315 316 317 318 319 319 320 320 319 319 319 319 320 322 324
240 241 241 241 241 241 242 244 246 248 250 251 251 252 252 253 255 257 258 260 262 263 264 265 265 267 268 269 270 272 274 276 278 281 283 285 287 287 287 287 287 287 288 288 290 292 294 295 297 299 301 303 304 305 306 308 310 311 312 312 312 312 313 314 314 315 314 314 314 315 315 316 317 318 318 319 319 319 319 318 318 319 321 324 325
240 242 244 244 244 243 244 245 246 248 250 252 254 255 256 257 258 259 261 263 265 265 266 267 267 268 269 270 272 273 275 277 280 282 285 286 286 285 285 285 285 286 287 288 290 292 293 295 297 299 301 302 303 305 306 308 310 310 310 311 311 312 313 314 314 314 314 314 314 315 315 316 316 317 318 319 318 318 318 318 319 321 323 325 325
240 241 243 245 246 247 247 247 247 248 250 252 254 255 257 259 260 262 264 266 267 268 268 268 269 269 269 270 272 273 275 279 282 284 285 284 283 283 283 283 284 286 287 289 290 292 293 295 298 299 301 302 303 305 306 307 308 308 309 310 311 312 313 314 314 313 313 314 314 315 315 316 316 317 318 318 317 317 317 318 320 322 324 325 325
242 243 244 245 246 247 248 249 249 250 251 252 253 254 256 258 260 263 267 270 272 271 270 268 267 267 268 269 271 274 277 281 282 282 281 280 280 280 281 282 284 286 288 289 290 292 295 297 298 300 300 302 303 304 305 306 306 307 309 310 311 312 313 313 313 313 313 314 314 315 315 316 316 317 317 317 317 317 318 319 321 323 324 325 326
242 243 245 245 246 247 248 250 251 252 252 253 254 255 256 259 263 269 274 275 273 270 269 268 266 266 267 269 272 275 279 280 281 281 280 280 280 281 282 285 287 289 290 291 293 295 297 298 298 299 300 302 303 304 305 306 307 308 310 311 311 311 312 313 313 312 313 314 314 315 315 316 316 316 316 316 316 317 318 320 322 324 325 326 326
243 244 245 246 247 247 247 249 250 251 252 253 254 255 257 260 264 268 270 271 272 274 273 271 269 268 269 271 274 277 280 282 283 283 283 283 283 283 285 287 288 289 289 291 293 293 294 295 295 297 300 302 303 304 304 305 307 309 310 310 311 311 312 312 312 312 313 314 315 315 315 315 315 316 316 316 316 317 319 321 322 324 325 327 327
243 244 245 246 247 248 248 249 249 250 251 252 253 256 259 261 259 251 250 256 265 271 273 272 270 269 271 275 278 281 283 285 284 283 285 286 284 282 283 285 287 287 288 289 289 290 291 292 292 296 300 302 303 304 305 306 308 310 310 310 310 311 311 312 312 313 314 315 315 314 314 315 315 315 315 315 316 318 319 321 323 324 326 328 328
244 245 246 246 247 247 248 248 249 249 250 250 251 253 257 260 258 253 249 249 249 252 259 266 269 272 277 282 285 285 284 283 281 281 283 283 279 280 284 288 289 288 287 287 288 289 291 291 292 295 299 301 303 305 306 307 308 309 309 309 310 310 312 313 314 315 315 315 314 314 314 314 314 314 313 314 317 318 319 321 323 325 327 328 329
244 245 246 247 247 247 247 247 248 250 250 250 250 248 245 250 256 257 256 254 252 252 259 266 271 275 279 284 284 283 282 281 282 285 286 281 273 276 283 289 290 288 287 288 289 290 291 291 293 296 299 301 303 304 305 306 306 307 308 309 311 312 314 315 315 315 315 314 314 313 313 313 312 312 313 315 317 318 319 322 324 326 328 329 329
242 243 245 247 248 248 248 248 249 249 250 249 248 245 238 238 246 253 255 257 258 261 265 269 272 275 277 279 278 277 276 279 283 286 288 285 278 275 278 283 285 285 285 286 288 290 291 293 295 298 299 300 301 302 303 304 305 306 308 310 312 313 315 315 315 315 314 313 313 313 312 311 311 311 313 316 317 318 320 322 325 327 328 329 329
240 242 244 246 247 248 249 249 249 249 249 248 247 245 240 234 237 243 249 255 261 266 266 266 268 270 271 272 272 270 269 273 276 277 279 281 278 274 275 278 281 282 283 285 288 291 293 294 295 296 296 297 298 299 300 302 304 306 308 311 312 313 315 315 315 315 314 314 314 313 312 311 311 312 314 316 317 318 320 323 325 327 328 329 329
240 242 244 245 246 247 248 249 249 249 249 249 248 246 243 238 236 239 245 252 256 257 255 254 256 260 262 263 264 264 263 265 269 272 274 276 275 273 274 275 276 277 279 283 287 289 291 292 292 293 295 296 297 297 299 301 303 306 309 311 312 314 315 315 315 316 316 315 315 314 312 311 311 312 313 315 316 318 321 323 325 327 328 328 330
241 244 245 246 246 247 247 248 249 249 250 250 250 248 246 244 240 238 239 241 242 243 246 246 248 252 255 256 259 261 262 262 265 268 269 270 271 271 271 271 272 274 277 280 282 285 287 288 290 292 293 294 295 297 299 300 302 306 309 311 312 313 315 315 315 315 315 314 314 313 312 311 311 312 313 314 316 318 321 324 325 326 327 328 330
241 243 246 247 248 248 248 249 249 250 250 250 251 250 249 247 246 243 240 239 238 241 246 248 247 248 248 247 250 256 258 260 263 266 268 269 268 267 267 267 268 271 274 277 279 282 284 286 288 290 291 292 294 296 297 299 302 306 309 310 311 312 313 313 314 314 314 314 313 312 312 311 311 311 313 314 317 319 322 324 325 326 327 329 330
241 242 245 247 248 248 249 249 249 250 250 250 251 251 251 251 251 248 246 244 240 240 245 248 248 248 246 243 244 249 253 255 257 261 263 265 264 262 263 265 267 271 274 275 277 280 282 284 286 287 289 290 292 294 296 297 301 305 308 309 309 310 310 311 312 314 314 313 312 312 312 311 311 311 313 315 318 320 322 323 325 326 328 330 331
240 241 243 245 245 246 246 247 248 249 249 249 250 251 253 254 254 251 248 244 237 234 239 244 245 245 245 244 242 246 250 251 252 253 255 257 258 259 262 266 269 271 273 274 275 277 280 282 283 285 287 289 290 293 294 297 301 304 306 306 307 308 308 309 311 313 313 312 311 311 310 310 310 311 314 316 318 320 321 323 324 326 328 330 330
239 240 242 242 243 244 244 245 246 247 248 248 248 248 250 252 253 253 251 247 240 235 237 241 243 243 244 243 242 244 248 251 253 254 255 256 256 258 260 264 266 268 270 273 275 276 278 280 281 283 285 286 288 291 293 296 300 302 304 304 305 305 306 308 310 311 311 310 309 308 308 308 309 311 314 316 318 319 321 322 324 327 328 329 329
239 240 241 241 242 243 244 244 246 247 248 248 247 246 244 245 246 249 250 249 245 241 239 241 244 244 244 244 243 243 246 249 253 256 259 259 258 257 258 260 263 266 268 270 272 274 276 278 280 282 284 285 287 289 292 295 298 300 302 303 303 303 304 306 308 310 310 309 307 306 306 306 307 310 313 315 317 319 320 322 324 326 327 327 326
240 240 241 242 243 244 245 245 246 247 248 249 248 246 244 242 242 243 244 243 242 241 239 239 242 245 245 246 246 246 247 249 251 255 260 261 260 258 258 258 260 262 265 268 271 274 276 278 280 281 283 284 286 289 292 294 297 298 300 301 301 301 303 305 307 308 308 307 306 305 304 305 306 309 312 314 316 317 319 321 322 324 325 325 324
240 241 242 243 244 245 246 246 247 248 248 249 249 249 247 246 245 244 242 241 241 242 242 241 242 246 247 248 248 250 251 252 250 251 255 258 258 258 258 258 259 262 265 269 271 273 275 277 279 281 282 284 287 289 291 293 295 297 298 299 299 301 303 304 306 307 306 305 304 303 303 304 306 308 311 313 315 316 317 319 321 322 323 323 323
241 241 243 244 246 247 248 248 249 249 249 249 248 248 248 248 248 247 244 242 242 244 244 243 244 246 248 248 248 249 251 251 249 248 250 253 255 257 258 259 261 264 266 268 270 272 274 277 280 281 283 285 287 289 291 293 295 296 297 297 299 300 302 303 305 305 304 303 303 302 303 304 305 307 310 312 313 315 316 317 319 320 321 322 323